[[{"header":{"parameterUnit":"m.s-1","parameterCategory":2,"la1":30.2991,"la2":30.254,"lo1":-89.0895,"lo2":-89.0444,"dy":0.0017,"dx":0.0017,"nx":28,"ny":28,"refTime":"2025-12-17T03:00:00:Z","depth":"0","parameterNumber":2,"parameterNumberName":"U-component_of_CURRENTS"},"data":[0,0,0,0,0,0,0,0,0,0,0,0,0,0,0,0,0,0,0,0,0,0,0,0,0,0,0,0,0,0,0,0,0,0,0,0,0,0,0,0,0,0,0,0,0,0,0,0,0,0,0,0,0,0,0,0,0,0,0.2756,0.2756,0,0.2779,0.2779,0.2779,0.2781,0.2781,0.2781,0.278,0.2755,0.2754,0.2753,0,0,0,0,0,0,0,0,0,0,0,0,0,0.27,0.2701,0.2756,0.2756,0.2757,0.2779,0.2779,0.2779,0.2781,0.2781,0.2781,0.278,0.2755,0.2754,0.2753,0,0,0,0,0,0,0,0,0,0,0,0,0,0.2722,0.2701,0.2755,0.2762,0.2763,0.2779,0.2779,0.2779,0.2781,0.2781,0.278,0.278,0.2755,0.2754,0.2753,0.2749,0,0,0.275,0.275,0,0,0,0,0,0,0,0,0.272,0.2723,0.276,0.2761,0.2762,0.2779,0.275,0.2767,0.2781,0.2772,0.278,0.278,0.276,0.2758,0.2761,0.2748,0.2747,0.275,0.275,0.2749,0.2749,0,0,0,0,0,0,0,0.2719,0.2722,0.2763,0.2761,0.2762,0.2759,0.2762,0.2753,0.2763,0.2772,0.2773,0.2779,0.2759,0.2761,0.276,0.2747,0.275,0.2749,0.2749,0.2749,0.2763,0.2764,0,0,0,0,0,0,0.2721,0.2721,0.2762,0.2763,0.2743,0.276,0.2763,0.2772,0.2764,0.2764,0.2779,0.2779,0.2763,0.2761,0.2759,0.2791,0.2749,0.2748,0.2748,0.2762,0.2763,0.2764,0,0,0,0,0,0,0.272,0.2725,0.2761,0.2744,0.2749,0.2762,0.2771,0.2772,0.2778,0.2771,0.2769,0.2784,0.2763,0.276,0.276,0.2789,0.2748,0.2747,0.2761,0.2762,0.2764,0.2831,0,0,0,0,0,0,0.2718,0.2724,0.2727,0.2745,0.275,0.2777,0.2771,0.2773,0.2783,0.2783,0.2774,0.2772,0.2763,0.2761,0.2759,0.2787,0.2746,0.276,0.2761,0.2763,0.2828,0.2835,0.2841,0,0,0,0,0,0.2716,0.2721,0.2727,0.2732,0.2755,0.2777,0.278,0.2787,0.2783,0.279,0.2785,0.2772,0.2771,0.2761,0.2758,0.2786,0.2759,0.2761,0.2763,0.2825,0.2833,0.2841,0,0,0,0,0,0,0.269,0.2722,0.273,0.2741,0.2762,0.2779,0.2783,0.279,0.2792,0.2788,0.2778,0.2776,0.2789,0.2774,0.2763,0.2795,0.2765,0.2767,0.2813,0.2821,0.2828,0.284,0.2746,0,0,0,0,0,0.2689,0.2703,0.2733,0.274,0.2753,0.2769,0.2777,0.2785,0.2792,0.2793,0.2791,0.2789,0.2795,0.2796,0.2794,0.2805,0.2821,0.2823,0.2829,0.2835,0.2843,0.2884,0.2896,0.2771,0.2771,0.2771,0,0,0.2677,0.2699,0.2704,0.2736,0.275,0.2777,0.2773,0.279,0.2813,0.2789,0.2811,0.2808,0.2802,0.2823,0.2828,0.2813,0.2885,0.2838,0.2843,0.2847,0.2888,0.29,0.2911,0.2773,0.2772,0.2772,0,0,0.2672,0.2686,0.2703,0.2727,0.2759,0.2775,0.2783,0.2808,0.2822,0.284,0.2838,0.2855,0.2851,0.2869,0.2873,0.2911,0.2917,0.2908,0.2953,0.2994,0.3005,0.3015,0.308,0.3095,0.2913,0.2913,0.2913,0,0.2658,0.2687,0.2708,0.2738,0.276,0.2778,0.2805,0.2826,0.2848,0.2866,0.2853,0.2886,0.2879,0.2925,0.2942,0.2929,0.2957,0.2925,0.3004,0.3014,0.3023,0.3087,0.3102,0.2917,0.2916,0.2916,0.2916,0,0.2674,0.27,0.2712,0.2761,0.2785,0.2809,0.2848,0.2871,0.2885,0.2909,0.2952,0.2955,0.2977,0.2983,0.2973,0.3038,0.3042,0.3009,0.2988,0.304,0.3104,0.3119,0.2922,0.292,0.2919,0.2918,0,0,0.2638,0.2711,0.2716,0.2746,0.2802,0.2822,0.2869,0.292,0.2954,0.2981,0.303,0.3056,0.3065,0.3071,0.3072,0.3108,0.3203,0.3088,0.3088,0.316,0.3319,0.3352,0.3371,0.3183,0.3185,0.3187,0.335,0,0.2646,0.2701,0.274,0.279,0.2821,0.2864,0.2908,0.2955,0.2991,0.3042,0.3074,0.3113,0.3098,0.3115,0.3154,0.3185,0.3241,0.3163,0.3251,0.3255,0.3283,0.3389,0.3219,0.3352,0.3364,0.3367,0.3369,0,0.265,0.2691,0.274,0.2815,0.2833,0.2865,0.2938,0.2982,0.306,0.3091,0.3145,0.317,0.3247,0.3208,0.3322,0.3274,0.3309,0.3331,0.3337,0.3351,0.3315,0.3295,0.3379,0.3253,0.3392,0.339,0.3388,0,0.2611,0.2689,0.2727,0.2753,0.2839,0.2869,0.2913,0.299,0.3038,0.3125,0.3173,0.3252,0.3303,0.3357,0.3427,0.3376,0.3552,0.3481,0.3554,0.3557,0.3423,0.341,0.3396,0.3567,0.3566,0.3566,0.3565,0,0.2604,0.2636,0.2711,0.2734,0.2781,0.2848,0.2907,0.2962,0.3053,0.3116,0.3195,0.3278,0.3339,0.3445,0.3479,0.3599,0.3606,0.3601,0.3611,0.3445,0.3434,0.3323,0.3266,0.3572,0.357,0.3569,0.3568,0,0.2556,0.2607,0.2653,0.2738,0.2762,0.2792,0.2893,0.2934,0.3037,0.3124,0.3159,0.3319,0.348,0.3569,0.3683,0.3682,0.3672,0.3805,0.363,0.3618,0.3538,0.3491,0.345,0.3345,0.3904,0.3906,0.3908,0,0.2538,0.2556,0.2633,0.2651,0.2688,0.2747,0.2783,0.2897,0.295,0.3156,0.3196,0.3402,0.3529,0.3762,0.3817,0.3928,0.3776,0.3813,0.3678,0.3555,0.3509,0.3381,0.3283,0.3534,0.3532,0.3531,0.353,0,0.2499,0.252,0.2551,0.2596,0.2629,0.2677,0.2746,0.2792,0.2933,0.3042,0.3217,0.3347,0.3601,0.3668,0.3837,0.3868,0.361,0.3793,0.3681,0.3257,0.3097,0.2991,0.3431,0.3519,0.352,0.3521,0.3521,0.3522,0.2449,0.2458,0.2496,0.2529,0.2568,0.2601,0.2606,0.27,0.2802,0.293,0.3135,0.3278,0.343,0.367,0.3697,0.3613,0.3607,0.3452,0.3424,0.3323,0.315,0.361,0.3696,0.3698,0.37,0.3702,0.3703,0,0.2382,0.2405,0.2432,0.2461,0.2463,0.2517,0.2569,0.256,0.2632,0.2806,0.2946,0.3102,0.3193,0.3305,0.3328,0.321,0.3044,0.311,0.2824,0.2759,0.3173,0.3083,0.3019,0.3019,0.3019,0.3019,0.3019,0.3019,0.2346,0.2347,0.2368,0.2353,0.2366,0.2332,0.2336,0.2346,0.2436,0.2536,0.2619,0.2744,0.2946,0.3035,0.2931,0.2865,0.2606,0.2527,0.2535,0.275,0.2776,0.28,0.2699,0.2556,0.2555,0.1957,0.1952,0.1949]},{"header":{"parameterUnit":"m.s-1","parameterCategory":2,"la1":30.2991,"la2":30.254,"lo1":-89.0895,"lo2":-89.0444,"dy":0.0017,"dx":0.0017,"nx":28,"ny":28,"refTime":"2025-12-17T03:00:00:Z","depth":"0","parameterNumber":3,"parameterNumberName":"V-component_of_CURRENTS"},"data":[0,0,0,0,0,0,0,0,0,0,0,0,0,0,0,0,0,0,0,0,0,0,0,0,0,0,0,0,0,0,0,0,0,0,0,0,0,0,0,0,0,0,0,0,0,0,0,0,0,0,0,0,0,0,0,0,0,0,-0.0432,-0.0432,0,-0.0474,-0.0475,-0.0476,-0.0521,-0.0522,-0.0522,-0.0522,-0.0603,-0.0604,-0.0606,0,0,0,0,0,0,0,0,0,0,0,0,0,-0.0404,-0.0405,-0.0432,-0.0432,-0.0432,-0.0474,-0.0475,-0.0476,-0.0521,-0.0522,-0.0522,-0.0523,-0.0602,-0.0604,-0.0606,0,0,0,0,0,0,0,0,0,0,0,0,0,-0.0431,-0.0405,-0.0432,-0.0458,-0.046,-0.0474,-0.0475,-0.0476,-0.0521,-0.0522,-0.0522,-0.0523,-0.0601,-0.0604,-0.0607,-0.0613,0,0,-0.0615,-0.0616,0,0,0,0,0,0,0,0,-0.043,-0.0433,-0.0454,-0.0456,-0.0459,-0.049,-0.0495,-0.0523,-0.0521,-0.0501,-0.0522,-0.0523,-0.0566,-0.0572,-0.0583,-0.0616,-0.062,-0.0615,-0.0617,-0.0618,-0.0619,0,0,0,0,0,0,0,-0.0428,-0.0431,-0.0452,-0.0454,-0.0457,-0.0472,-0.0476,-0.05,-0.0533,-0.0503,-0.0506,-0.0505,-0.0568,-0.058,-0.0585,-0.0621,-0.0615,-0.0617,-0.0619,-0.062,-0.0679,-0.0678,0,0,0,0,0,0,-0.0415,-0.0429,-0.045,-0.0453,-0.0442,-0.0471,-0.0477,-0.0482,-0.0532,-0.0539,-0.0505,-0.0507,-0.0575,-0.0582,-0.0588,-0.0614,-0.0618,-0.062,-0.0622,-0.0679,-0.0679,-0.0678,0,0,0,0,0,0,-0.0414,-0.0416,-0.0449,-0.0439,-0.0444,-0.0471,-0.0477,-0.0483,-0.0492,-0.0533,-0.0541,-0.0507,-0.0576,-0.0584,-0.0608,-0.0617,-0.0622,-0.0624,-0.0679,-0.0679,-0.0679,-0.0657,0,0,0,0,0,0,-0.0413,-0.0416,-0.0414,-0.0438,-0.0444,-0.0448,-0.0476,-0.0483,-0.0489,-0.0493,-0.0538,-0.0546,-0.0577,-0.0604,-0.0611,-0.0621,-0.0626,-0.0679,-0.0679,-0.0679,-0.0658,-0.0656,-0.0655,0,0,0,0,0,-0.0412,-0.0403,-0.0414,-0.0416,-0.0441,-0.0447,-0.0452,-0.0475,-0.0489,-0.0487,-0.0522,-0.0544,-0.0608,-0.0606,-0.0614,-0.0625,-0.0679,-0.0679,-0.0679,-0.0658,-0.0656,-0.0655,0,0,0,0,0,0,-0.0381,-0.0407,-0.042,-0.0418,-0.0428,-0.0454,-0.0452,-0.0468,-0.0494,-0.0499,-0.0542,-0.0553,-0.0578,-0.0599,-0.0595,-0.064,-0.0648,-0.0649,-0.063,-0.0628,-0.0626,-0.06,-0.0629,0,0,0,0,0,-0.0375,-0.0379,-0.0401,-0.0395,-0.0401,-0.0426,-0.0431,-0.0446,-0.047,-0.0482,-0.0514,-0.0549,-0.0583,-0.0602,-0.0629,-0.0652,-0.066,-0.0664,-0.0662,-0.0661,-0.0644,-0.0675,-0.0674,-0.0678,-0.0678,-0.0678,0,0,-0.0358,-0.0372,-0.0374,-0.039,-0.0403,-0.0403,-0.0431,-0.0433,-0.0439,-0.0486,-0.0505,-0.0541,-0.0586,-0.0615,-0.0629,-0.0635,-0.0662,-0.0661,-0.066,-0.0643,-0.0675,-0.0674,-0.0674,-0.0678,-0.0678,-0.0678,0,0,-0.0326,-0.0343,-0.0339,-0.0347,-0.036,-0.0378,-0.0375,-0.04,-0.0419,-0.0437,-0.048,-0.0514,-0.056,-0.0598,-0.0624,-0.0626,-0.065,-0.0641,-0.0618,-0.0648,-0.0648,-0.0648,-0.0647,-0.0647,-0.0644,-0.0644,-0.0644,0,-0.0305,-0.0306,-0.0334,-0.0329,-0.033,-0.0363,-0.0352,-0.0376,-0.0406,-0.0419,-0.0436,-0.051,-0.0551,-0.0594,-0.0602,-0.0623,-0.0633,-0.0625,-0.0646,-0.0646,-0.0647,-0.0645,-0.0646,-0.0643,-0.0643,-0.0643,-0.0644,0,-0.0271,-0.0273,-0.0267,-0.028,-0.0283,-0.0277,-0.0308,-0.032,-0.0347,-0.0375,-0.0414,-0.0473,-0.0514,-0.0544,-0.0578,-0.0608,-0.061,-0.0638,-0.065,-0.0645,-0.0644,-0.0645,-0.0642,-0.0642,-0.0642,-0.0643,0,0,-0.0221,-0.0242,-0.0238,-0.0237,-0.0256,-0.0252,-0.0264,-0.0285,-0.0286,-0.0338,-0.0344,-0.0427,-0.0459,-0.0488,-0.0542,-0.0578,-0.0596,-0.0608,-0.061,-0.0602,-0.064,-0.058,-0.0575,-0.0636,-0.0636,-0.0636,-0.0634,0,-0.0186,-0.017,-0.0189,-0.0169,-0.0164,-0.0195,-0.0197,-0.0221,-0.0251,-0.0266,-0.0343,-0.037,-0.044,-0.0459,-0.0508,-0.0568,-0.0599,-0.0592,-0.0648,-0.0648,-0.0594,-0.0575,-0.0543,-0.0534,-0.0635,-0.0635,-0.0635,0,-0.0145,-0.0143,-0.0117,-0.012,-0.0118,-0.0108,-0.0111,-0.0117,-0.0158,-0.0182,-0.0232,-0.0284,-0.0347,-0.0401,-0.0502,-0.0496,-0.056,-0.0611,-0.0613,-0.0561,-0.059,-0.0557,-0.0531,-0.07,-0.0636,-0.0636,-0.0636,0,-0.0095,-0.0091,-0.0068,-0.0067,-0.0074,-0.0063,-0.0065,-0.0088,-0.0074,-0.0122,-0.0105,-0.0209,-0.0224,-0.0337,-0.0434,-0.0476,-0.0519,-0.0594,-0.0598,-0.0594,-0.0577,-0.057,-0.0715,-0.0658,-0.0658,-0.0658,-0.0658,0,-0.0053,-0.0036,-0.0041,-0.0025,0.0016,-0.0009,0.0035,0.0013,0.0016,0.0072,-0.0051,-0.0008,-0.0209,-0.0255,-0.0385,-0.0459,-0.0481,-0.0572,-0.0587,-0.0566,-0.0558,-0.0711,-0.0811,-0.0658,-0.0658,-0.0658,-0.0658,0,-0.0005,-0.0012,0.0023,0.0033,0.0043,0.0077,0.012,0.0154,0.014,0.0217,0.0214,0.0149,0.01,-0.007,-0.022,-0.0356,-0.0535,-0.0485,-0.0422,-0.043,-0.0616,-0.0714,-0.0834,-0.0887,-0.0513,-0.0511,-0.051,0,0.0014,0.0036,0.0084,0.0126,0.0136,0.0182,0.0223,0.0218,0.028,0.035,0.0413,0.038,0.0422,0.0226,-0.0026,-0.0225,-0.0423,-0.0365,-0.0453,-0.0598,-0.0722,-0.0806,-0.0849,-0.0426,-0.0424,-0.0423,-0.0421,0,0.0059,0.0086,0.0125,0.022,0.0276,0.0345,0.0415,0.0491,0.0532,0.0626,0.0778,0.0824,0.0649,0.0482,0.0175,-0.0005,-0.0471,-0.0338,-0.0527,-0.0681,-0.0745,-0.081,-0.0441,-0.0408,-0.0409,-0.041,-0.0411,-0.0411,0.011,0.0162,0.0236,0.0333,0.0407,0.0532,0.0623,0.0734,0.0892,0.108,0.1092,0.122,0.0888,0.0494,0.0226,-0.0301,-0.033,-0.049,-0.0599,-0.0671,-0.0722,-0.0289,-0.025,-0.025,-0.025,-0.0251,-0.0251,0,0.019,0.0257,0.0346,0.048,0.0597,0.061,0.0773,0.0893,0.1135,0.1314,0.1477,0.141,0.1022,0.0534,-0.0153,-0.0512,-0.0687,-0.0735,-0.0896,-0.093,-0.0579,-0.0576,-0.0558,-0.0558,-0.0558,-0.0557,-0.0557,-0.0557,0.0244,0.0356,0.0413,0.0635,0.0731,0.0897,0.101,0.1198,0.1359,0.1612,0.1709,0.1743,0.1341,0.015,-0.0678,-0.0872,-0.1154,-0.1183,-0.132,-0.1145,-0.1133,-0.1121,-0.1144,-0.1246,-0.1247,-0.1628,-0.1632,-0.1635]}],[{"header":{"parameterUnit":"m.s-1","parameterCategory":2,"la1":30.2991,"la2":30.254,"lo1":-89.0895,"lo2":-89.0444,"dy":0.0017,"dx":0.0017,"nx":28,"ny":28,"refTime":"2025-12-17T03:00:00:Z","depth":"2","parameterNumber":2,"parameterNumberName":"U-component_of_CURRENTS"},"data":[0,0,0,0,0,0,0,0,0,0,0,0,0,0,0,0,0,0,0,0,0,0,0,0,0,0,0,0,0,0,0,0,0,0,0,0,0,0,0,0,0,0,0,0,0,0,0,0,0,0,0,0,0,0,0,0,0,0,0.2346,0.2347,0,0.239,0.239,0.239,0.2395,0.2395,0.2395,0.2395,0.2396,0.2396,0.2396,0,0,0,0,0,0,0,0,0,0,0,0,0,0.2292,0.2292,0.2346,0.2347,0.2348,0.239,0.239,0.239,0.2395,0.2395,0.2395,0.2395,0.2396,0.2396,0.2396,0,0,0,0,0,0,0,0,0,0,0,0,0,0.2318,0.2293,0.2345,0.2359,0.2361,0.239,0.239,0.239,0.2395,0.2395,0.2395,0.2395,0.2396,0.2396,0.2396,0.2394,0,0,0.2396,0.2396,0,0,0,0,0,0,0,0,0.2317,0.2319,0.2356,0.2358,0.2361,0.2392,0.2372,0.2391,0.2395,0.2376,0.2395,0.2395,0.2395,0.2395,0.2395,0.2394,0.2394,0.2396,0.2396,0.2396,0.2396,0,0,0,0,0,0,0,0.2315,0.2318,0.2357,0.2357,0.236,0.2374,0.2376,0.2376,0.2379,0.2377,0.2379,0.2394,0.2395,0.2395,0.2395,0.2394,0.2396,0.2396,0.2396,0.2396,0.2448,0.2449,0,0,0,0,0,0,0.232,0.2316,0.2356,0.2359,0.2345,0.2375,0.2378,0.2377,0.238,0.2382,0.2393,0.2394,0.2395,0.2395,0.2395,0.2455,0.2396,0.2396,0.2396,0.2447,0.2448,0.245,0,0,0,0,0,0,0.2318,0.2322,0.2354,0.2344,0.235,0.2376,0.2375,0.2378,0.2392,0.2394,0.2394,0.2407,0.2395,0.2395,0.241,0.2453,0.2396,0.2396,0.2445,0.2447,0.2449,0.2534,0,0,0,0,0,0,0.2316,0.2321,0.233,0.2344,0.2351,0.2371,0.2376,0.2379,0.2403,0.2404,0.2405,0.2405,0.2395,0.241,0.241,0.2452,0.2396,0.2443,0.2446,0.2448,0.253,0.2539,0.2547,0,0,0,0,0,0.2313,0.2324,0.2329,0.2335,0.2359,0.2372,0.2375,0.2391,0.2404,0.2405,0.2417,0.2405,0.2427,0.2411,0.241,0.2453,0.2442,0.2445,0.2448,0.2526,0.2537,0.2547,0,0,0,0,0,0,0.2297,0.2327,0.2332,0.2349,0.236,0.2375,0.2392,0.2401,0.2411,0.242,0.2416,0.2416,0.2443,0.2433,0.2416,0.2475,0.2436,0.2439,0.2495,0.2505,0.2514,0.2533,0.2396,0,0,0,0,0,0.2301,0.2317,0.2338,0.2348,0.2362,0.2379,0.2392,0.24,0.2413,0.2418,0.2426,0.2438,0.2454,0.2467,0.2466,0.2498,0.2502,0.2527,0.2536,0.2544,0.2559,0.26,0.2615,0.246,0.246,0.246,0,0,0.2295,0.2317,0.2324,0.2347,0.2363,0.2389,0.2386,0.2408,0.2439,0.2417,0.2462,0.246,0.2465,0.25,0.2514,0.2502,0.2589,0.2548,0.2554,0.2565,0.2605,0.262,0.2634,0.2462,0.2462,0.2461,0,0,0.2295,0.2314,0.2331,0.2354,0.2388,0.2401,0.2412,0.2437,0.2459,0.2491,0.2494,0.2524,0.2538,0.2564,0.2577,0.2633,0.2624,0.2633,0.2706,0.2747,0.276,0.2772,0.2796,0.281,0.2649,0.265,0.265,0,0.2295,0.2316,0.2335,0.2367,0.2398,0.2412,0.2442,0.2469,0.2495,0.2523,0.2514,0.2571,0.2576,0.2642,0.2671,0.2657,0.2669,0.2668,0.276,0.2772,0.2782,0.2804,0.2818,0.2654,0.2654,0.2653,0.2653,0,0.2306,0.2338,0.2354,0.2402,0.2431,0.2458,0.2503,0.2534,0.2564,0.2591,0.2651,0.2665,0.2706,0.2717,0.2718,0.2804,0.2783,0.2757,0.2736,0.2803,0.2822,0.2834,0.266,0.2659,0.2658,0.2656,0,0,0.2279,0.2349,0.2359,0.2399,0.2458,0.2485,0.2545,0.2601,0.2668,0.2688,0.2764,0.2807,0.2822,0.2839,0.2849,0.2895,0.2986,0.2873,0.2873,0.2902,0.3073,0.2997,0.3002,0.2979,0.2981,0.2984,0.3055,0,0.2287,0.2343,0.2384,0.2454,0.2491,0.2545,0.261,0.2667,0.2723,0.2797,0.2827,0.2893,0.287,0.291,0.2954,0.2981,0.3024,0.2969,0.2999,0.3,0.2928,0.3016,0.2789,0.2828,0.3067,0.307,0.3071,0,0.2294,0.2333,0.2392,0.25,0.2527,0.2577,0.2695,0.2758,0.2857,0.2906,0.2968,0.2991,0.3076,0.3037,0.3125,0.3092,0.3098,0.3103,0.3105,0.3015,0.2948,0.2799,0.2842,0.3092,0.309,0.3089,0.3087,0,0.226,0.2355,0.2404,0.2439,0.2549,0.2604,0.2671,0.2781,0.2847,0.2979,0.3029,0.3119,0.3166,0.3201,0.3214,0.3188,0.3285,0.3244,0.3172,0.3166,0.2968,0.294,0.3298,0.3298,0.3298,0.3298,0.3298,0,0.2258,0.2306,0.2399,0.2427,0.2509,0.2606,0.2714,0.2797,0.2919,0.2987,0.3084,0.3139,0.321,0.3256,0.3261,0.3263,0.3325,0.3209,0.3193,0.299,0.2964,0.3181,0.3166,0.3301,0.33,0.33,0.3299,0,0.2217,0.2271,0.2339,0.2454,0.2489,0.2555,0.2696,0.2772,0.2909,0.2999,0.3037,0.3169,0.325,0.3295,0.3361,0.3312,0.3329,0.3301,0.3054,0.3007,0.317,0.316,0.3253,0.3251,0.325,0.3249,0.3248,0,0.2203,0.2236,0.2331,0.236,0.2413,0.2516,0.2574,0.273,0.2793,0.2988,0.3002,0.3141,0.3176,0.3264,0.3256,0.3269,0.3309,0.303,0.294,0.3199,0.3173,0.3164,0.3155,0.2712,0.2706,0.2702,0.2698,0,0.2179,0.2215,0.2251,0.2307,0.2366,0.2441,0.253,0.2559,0.2731,0.2808,0.2901,0.2961,0.3071,0.2993,0.3033,0.3001,0.302,0.294,0.3293,0.2756,0.2693,0.2666,0.2674,0.2659,0.2663,0.2666,0.2668,0.267,0.2151,0.2164,0.2207,0.2253,0.2315,0.2352,0.2371,0.2442,0.2507,0.2566,0.2691,0.27,0.2764,0.2715,0.2656,0.2636,0.283,0.2692,0.2703,0.272,0.2642,0.258,0.251,0.2512,0.2515,0.2517,0.2519,0,0.2099,0.2117,0.2154,0.2196,0.2217,0.2292,0.233,0.2296,0.2289,0.2347,0.2386,0.2221,0.22,0.2279,0.2196,0.2208,0.217,0.2116,0.2042,0.2084,0.2121,0.201,0.1711,0.1708,0.1706,0.1703,0,0,0.2072,0.2066,0.2071,0.2073,0.2116,0.2108,0.21,0.204,0.2035,0.1939,0.1918,0.2064,0.2188,0.1898,0.1895,0.1783,0.1906,0.1717,0.2374,0.2329,0.2361,0.2475,0.2354,0,0,0,0,0]},{"header":{"parameterUnit":"m.s-1","parameterCategory":2,"la1":30.2991,"la2":30.254,"lo1":-89.0895,"lo2":-89.0444,"dy":0.0017,"dx":0.0017,"nx":28,"ny":28,"refTime":"2025-12-17T03:00:00:Z","depth":"2","parameterNumber":3,"parameterNumberName":"V-component_of_CURRENTS"},"data":[0,0,0,0,0,0,0,0,0,0,0,0,0,0,0,0,0,0,0,0,0,0,0,0,0,0,0,0,0,0,0,0,0,0,0,0,0,0,0,0,0,0,0,0,0,0,0,0,0,0,0,0,0,0,0,0,0,0,0.0045,0.0045,0,-0.0011,-0.0012,-0.0012,-0.0044,-0.0044,-0.0044,-0.0045,-0.0117,-0.0119,-0.012,0,0,0,0,0,0,0,0,0,0,0,0,0,0.0073,0.0073,0.0045,0.0045,0.0044,-0.0011,-0.0012,-0.0013,-0.0044,-0.0044,-0.0044,-0.0045,-0.0116,-0.0118,-0.012,0,0,0,0,0,0,0,0,0,0,0,0,0,0.0044,0.0073,0.0046,0.0021,0.0018,-0.0011,-0.0012,-0.0013,-0.0044,-0.0044,-0.0044,-0.0045,-0.0116,-0.0118,-0.0121,-0.013,0,0,-0.0129,-0.013,0,0,0,0,0,0,0,0,0.0046,0.0044,0.0025,0.0022,0.0019,-0.0022,-0.0029,-0.0053,-0.0044,-0.0019,-0.0045,-0.0045,-0.0087,-0.0092,-0.01,-0.0134,-0.0137,-0.0129,-0.013,-0.0132,-0.0132,0,0,0,0,0,0,0,0.0048,0.0045,0.0024,0.0024,0.002,-0.0007,-0.001,-0.0034,-0.005,-0.0021,-0.0024,-0.0032,-0.0089,-0.0097,-0.0102,-0.0138,-0.0129,-0.0131,-0.0133,-0.0134,-0.0187,-0.0186,0,0,0,0,0,0,0.0056,0.0048,0.0026,0.0022,0.003,-0.0007,-0.0011,-0.0008,-0.0049,-0.0056,-0.0032,-0.0034,-0.0093,-0.0099,-0.0105,-0.0114,-0.0131,-0.0134,-0.0135,-0.0187,-0.0187,-0.0186,0,0,0,0,0,0,0.0057,0.0055,0.0028,0.0032,0.0026,-0.0006,-0.0003,-0.0009,-0.0018,-0.0058,-0.0065,-0.0036,-0.0093,-0.0101,-0.0122,-0.0117,-0.0135,-0.0137,-0.0187,-0.0187,-0.0186,-0.0136,0,0,0,0,0,0,0.0058,0.0056,0.006,0.0033,0.0026,0.0024,-0.0003,-0.0009,-0.0023,-0.0026,-0.0063,-0.007,-0.0094,-0.0118,-0.0124,-0.0121,-0.0139,-0.0187,-0.0187,-0.0187,-0.0138,-0.0134,-0.0131,0,0,0,0,0,0.0059,0.0072,0.0061,0.0058,0.0034,0.0025,0.002,-0.0005,-0.0023,-0.0016,-0.0048,-0.0069,-0.0121,-0.012,-0.0128,-0.0125,-0.0187,-0.0187,-0.0187,-0.0139,-0.0135,-0.0131,0,0,0,0,0,0,0.0089,0.0069,0.0057,0.0063,0.0049,0.0019,0.0016,-0.0002,-0.0022,-0.0031,-0.0067,-0.0076,-0.0091,-0.0116,-0.0113,-0.014,-0.0158,-0.0159,-0.0119,-0.0115,-0.0112,-0.009,-0.0142,0,0,0,0,0,0.0097,0.0098,0.0077,0.0081,0.0075,0.0045,0.0036,0.002,-0.0004,-0.0014,-0.0041,-0.0073,-0.0096,-0.0111,-0.0133,-0.0149,-0.0168,-0.0153,-0.0149,-0.0146,-0.0134,-0.017,-0.0169,-0.0185,-0.0185,-0.0185,0,0,0.0106,0.0095,0.0095,0.0086,0.0069,0.0072,0.004,0.0029,0.0032,-0.0019,-0.0026,-0.0059,-0.0096,-0.0111,-0.012,-0.0132,-0.0149,-0.0146,-0.0143,-0.0132,-0.017,-0.0168,-0.0167,-0.0185,-0.0185,-0.0185,0,0,0.0133,0.0119,0.0133,0.0123,0.0103,0.0088,0.0089,0.0063,0.0053,0.0037,0.0003,-0.0025,-0.0063,-0.0085,-0.0103,-0.0094,-0.0127,-0.0105,-0.0074,-0.011,-0.0109,-0.0108,-0.0118,-0.0119,-0.0108,-0.0108,-0.0108,0,0.0144,0.0163,0.0136,0.0145,0.0142,0.0101,0.0119,0.0102,0.0073,0.0071,0.0042,-0.0007,-0.0049,-0.0057,-0.0063,-0.0085,-0.0104,-0.0087,-0.0105,-0.0104,-0.0105,-0.0115,-0.0117,-0.0105,-0.0105,-0.0106,-0.0106,0,0.0181,0.0194,0.02,0.0201,0.0195,0.0201,0.0176,0.0174,0.0147,0.0125,0.0109,0.0053,0.0022,0.0002,-0.0036,-0.005,-0.0062,-0.0092,-0.0112,-0.01,-0.0112,-0.0114,-0.0102,-0.0102,-0.0103,-0.0104,0,0,0.0213,0.0227,0.0228,0.0245,0.0226,0.023,0.0237,0.0239,0.0248,0.0203,0.0214,0.0149,0.0107,0.0084,0.0037,0.0001,-0.003,-0.0049,-0.0052,-0.0052,-0.0091,-0.0116,-0.0121,-0.0069,-0.007,-0.007,-0.0095,0,0.0253,0.03,0.0287,0.0324,0.0349,0.0318,0.033,0.0318,0.0296,0.0294,0.0235,0.0215,0.0142,0.0121,0.0071,-0.0001,-0.0035,-0.0019,-0.0109,-0.0111,-0.013,-0.0124,-0.0107,-0.013,-0.0097,-0.0098,-0.0098,0,0.0293,0.0325,0.0376,0.0405,0.041,0.0417,0.0435,0.0437,0.0417,0.0395,0.036,0.0311,0.0255,0.0186,0.0074,0.0086,-0.0,-0.0057,-0.006,-0.0101,-0.014,-0.0141,-0.0136,-0.0102,-0.0102,-0.0101,-0.0101,0,0.0341,0.0384,0.0433,0.0437,0.0458,0.0474,0.048,0.047,0.0492,0.0459,0.0473,0.0387,0.0358,0.0239,0.0101,0.0081,-0.0012,-0.0057,-0.0146,-0.0148,-0.0159,-0.0161,-0.0132,-0.0132,-0.0132,-0.0132,-0.0132,0,0.0391,0.0427,0.046,0.0482,0.0542,0.0523,0.0572,0.0564,0.0572,0.0616,0.0523,0.0548,0.0365,0.029,0.0145,0.0,0.0014,-0.0131,-0.0159,-0.014,-0.014,-0.0141,-0.0141,-0.0133,-0.0133,-0.0133,-0.0133,0,0.0431,0.0451,0.0511,0.055,0.0566,0.0602,0.0647,0.0688,0.0675,0.0737,0.0735,0.0667,0.0554,0.0389,0.0206,0.0072,-0.0073,-0.0128,-0.008,-0.0104,-0.0193,-0.019,-0.0229,-0.023,-0.0231,-0.0232,-0.0233,0,0.0464,0.0495,0.0563,0.0606,0.0625,0.0678,0.0728,0.0737,0.0791,0.0826,0.0874,0.079,0.0742,0.0474,0.0211,-0.0031,-0.0065,-0.0165,-0.0216,-0.018,-0.0204,-0.0201,-0.0197,-0.0201,-0.0201,-0.0202,-0.0202,0,0.0521,0.0532,0.0584,0.0676,0.0737,0.0817,0.0886,0.095,0.0981,0.1029,0.1076,0.104,0.0788,0.0527,0.0189,0.0026,-0.0133,-0.018,-0.0154,-0.0184,-0.0158,-0.018,-0.0177,-0.0205,-0.0204,-0.0204,-0.0204,-0.0204,0.0561,0.0602,0.0663,0.0749,0.0828,0.0934,0.101,0.1091,0.1182,0.1243,0.1211,0.1148,0.0874,0.0417,0.0141,-0.0155,-0.0151,-0.0257,-0.0255,-0.0252,-0.025,-0.0228,-0.0285,-0.0285,-0.0285,-0.0285,-0.0285,0,0.0608,0.0649,0.0733,0.0838,0.0931,0.0965,0.1104,0.117,0.1281,0.1318,0.1319,0.1049,0.0768,0.046,0.0017,-0.0243,-0.0259,-0.0319,-0.0284,-0.028,-0.0276,-0.0275,-0.0317,-0.0317,-0.0318,-0.0319,0,0,0.063,0.0704,0.0744,0.0899,0.0977,0.1104,0.1187,0.1277,0.1323,0.1332,0.1286,0.1201,0.0846,0.0524,0.0172,-0.0075,-0.0117,-0.0122,-0.0072,0.0015,0.0022,-0.0217,-0.0207,0,0,0,0,0]}],[{"header":{"parameterUnit":"m.s-1","parameterCategory":2,"la1":30.2991,"la2":30.254,"lo1":-89.0895,"lo2":-89.0444,"dy":0.0017,"dx":0.0017,"nx":28,"ny":28,"refTime":"2025-12-17T03:00:00:Z","depth":"4","parameterNumber":2,"parameterNumberName":"U-component_of_CURRENTS"},"data":[0,0,0,0,0,0,0,0,0,0,0,0,0,0,0,0,0,0,0,0,0,0,0,0,0,0,0,0,0,0,0,0,0,0,0,0,0,0,0,0,0,0,0,0,0,0,0,0,0,0,0,0,0,0,0,0,0,0,0.1336,0.1337,0,0.1411,0.1412,0.1412,0.1457,0.1457,0.1458,0.1458,0.1522,0.1523,0.1524,0,0,0,0,0,0,0,0,0,0,0,0,0,0.1239,0.124,0.1336,0.1337,0.1338,0.1411,0.1412,0.1412,0.1457,0.1457,0.1458,0.1458,0.1521,0.1523,0.1524,0,0,0,0,0,0,0,0,0,0,0,0,0,0.1292,0.124,0.1336,0.1371,0.1375,0.1411,0.1412,0.1413,0.1457,0.1457,0.1458,0.1459,0.1521,0.1523,0.1525,0.1524,0,0,0.1531,0.1532,0,0,0,0,0,0,0,0,0.1289,0.1295,0.1364,0.1368,0.1373,0.1427,0.1401,0.145,0.1457,0.1423,0.1458,0.1459,0.149,0.1495,0.1504,0.1527,0.153,0.1531,0.1532,0.1533,0.1533,0,0,0,0,0,0,0,0.1285,0.1292,0.1363,0.1366,0.1371,0.1386,0.1393,0.141,0.145,0.1426,0.143,0.1442,0.1492,0.1502,0.1506,0.1531,0.1531,0.1533,0.1534,0.1535,0.1636,0.1638,0,0,0,0,0,0,0.1279,0.1289,0.1361,0.1366,0.1334,0.1387,0.1396,0.1407,0.145,0.1458,0.1441,0.1444,0.1499,0.1504,0.1509,0.1579,0.1533,0.1535,0.1536,0.1635,0.1637,0.1638,0,0,0,0,0,0,0.1277,0.1285,0.1358,0.1331,0.1341,0.1388,0.1401,0.1409,0.145,0.1463,0.147,0.1479,0.1499,0.1506,0.1551,0.1579,0.1536,0.1537,0.1633,0.1635,0.1637,0.1676,0,0,0,0,0,0,0.1274,0.1284,0.1305,0.133,0.1343,0.1387,0.1401,0.141,0.1456,0.1461,0.1497,0.1502,0.15,0.1549,0.1553,0.1581,0.1539,0.1631,0.1634,0.1637,0.1673,0.1679,0.1685,0,0,0,0,0,0.127,0.1288,0.1305,0.1315,0.1365,0.1387,0.1395,0.1428,0.1457,0.147,0.1507,0.1502,0.157,0.1552,0.1557,0.1586,0.163,0.1633,0.1636,0.167,0.1678,0.1685,0,0,0,0,0,0,0.1259,0.1295,0.1315,0.1345,0.137,0.1396,0.1423,0.1448,0.1488,0.1507,0.1521,0.1528,0.1577,0.158,0.1559,0.1624,0.1599,0.1604,0.1623,0.1631,0.1636,0.1632,0.1541,0,0,0,0,0,0.1266,0.129,0.1321,0.1347,0.1365,0.1402,0.1425,0.1447,0.148,0.1501,0.1528,0.1561,0.159,0.161,0.1629,0.1667,0.1674,0.169,0.1696,0.1701,0.1702,0.175,0.176,0.165,0.1649,0.1649,0,0,0.1272,0.1294,0.1311,0.1347,0.1376,0.1402,0.1418,0.1457,0.1485,0.15,0.1557,0.1584,0.1606,0.1646,0.1668,0.1655,0.1736,0.1705,0.1709,0.1708,0.1755,0.1765,0.1775,0.1652,0.1651,0.1651,0,0,0.1278,0.1315,0.1334,0.1357,0.1401,0.1422,0.1441,0.1484,0.1512,0.1561,0.1585,0.163,0.1674,0.1692,0.1708,0.176,0.1766,0.1776,0.1805,0.1852,0.1861,0.1869,0.1887,0.1897,0.178,0.178,0.178,0,0.1287,0.1311,0.1343,0.1364,0.1386,0.1436,0.1457,0.1492,0.1546,0.1571,0.1585,0.1675,0.1692,0.1745,0.1766,0.1773,0.1797,0.1773,0.1859,0.1868,0.1876,0.1892,0.1902,0.1782,0.1782,0.1782,0.1782,0,0.1295,0.1328,0.1343,0.1386,0.1412,0.1441,0.1485,0.1527,0.1575,0.1608,0.1679,0.1714,0.1768,0.1783,0.1794,0.1863,0.1861,0.186,0.1838,0.1889,0.1903,0.1913,0.1786,0.1785,0.1784,0.1784,0,0,0.1277,0.1337,0.1345,0.1367,0.1426,0.1444,0.1499,0.1549,0.1602,0.1658,0.1719,0.1775,0.1814,0.1835,0.1862,0.1903,0.1976,0.1915,0.1916,0.1926,0.2076,0.1957,0.1956,0.2004,0.2007,0.2008,0.2061,0,0.1277,0.131,0.1341,0.1384,0.1408,0.1462,0.1503,0.1559,0.1626,0.1701,0.1753,0.1832,0.1829,0.1884,0.1921,0.1971,0.2006,0.1961,0.203,0.2032,0.1915,0.1965,0.2015,0.2068,0.2071,0.2072,0.2073,0,0.1269,0.1293,0.1327,0.1382,0.1398,0.1438,0.1519,0.1565,0.1672,0.1724,0.181,0.1877,0.1959,0.1957,0.2047,0.2028,0.2058,0.2081,0.2084,0.1965,0.1931,0.2009,0.2091,0.2089,0.2088,0.2087,0.2086,0,0.1224,0.1282,0.1308,0.1328,0.1399,0.1435,0.1486,0.1582,0.1634,0.1773,0.1839,0.1935,0.2013,0.2064,0.2125,0.2109,0.2214,0.2191,0.2101,0.2092,0.2165,0.2156,0.2253,0.2253,0.2252,0.2252,0.2252,0,0.1195,0.1219,0.1301,0.1315,0.1358,0.1419,0.1494,0.1559,0.1673,0.1746,0.1865,0.1939,0.2055,0.2133,0.2155,0.2154,0.2239,0.2109,0.2104,0.2179,0.2171,0.2172,0.2161,0.2254,0.2254,0.2253,0.2253,0,0.1135,0.1188,0.1226,0.1309,0.1342,0.1378,0.1494,0.1545,0.1665,0.1772,0.183,0.1977,0.2072,0.2153,0.2248,0.2186,0.2205,0.2185,0.226,0.2257,0.2038,0.203,0.2072,0.2069,0.2065,0.2063,0.2061,0,0.1099,0.1113,0.1213,0.1244,0.1289,0.1364,0.141,0.1529,0.1587,0.1775,0.1808,0.1973,0.2056,0.2071,0.2161,0.2187,0.2168,0.2152,0.2085,0.2032,0.2024,0.202,0.2016,0.2056,0.2055,0.2054,0.2053,0,0.1027,0.1081,0.112,0.1184,0.1242,0.1289,0.1374,0.1408,0.1549,0.1679,0.1764,0.1842,0.1938,0.1999,0.2047,0.2059,0.2145,0.2119,0.2124,0.2061,0.2013,0.2006,0.2006,0.2043,0.2044,0.2045,0.2046,0,0.0986,0.0999,0.1066,0.1113,0.117,0.1192,0.1252,0.132,0.139,0.1595,0.1624,0.1782,0.1921,0.1935,0.1974,0.1984,0.1948,0.1873,0.189,0.1903,0.1825,0.1738,0.1683,0,0,0,0,0,0.0937,0.0949,0.0986,0.1026,0.1071,0.111,0.1207,0.1272,0.1422,0.1439,0.1529,0.1616,0.17,0.1776,0.1753,0.1895,0.1948,0.1858,0.1869,0.1983,0.1996,0.1921,0,0,0,0,0,0,0.091,0.0944,0.0961,0.0938,0.0947,0.0983,0.1044,0.1148,0.1162,0.133,0.1379,0.1513,0.1609,0.1697,0.172,0.1743,0.1715,0.1957,0.1953,0.1976,0.1988,0.1998,0.1925,0,0,0,0,0]},{"header":{"parameterUnit":"m.s-1","parameterCategory":2,"la1":30.2991,"la2":30.254,"lo1":-89.0895,"lo2":-89.0444,"dy":0.0017,"dx":0.0017,"nx":28,"ny":28,"refTime":"2025-12-17T03:00:00:Z","depth":"4","parameterNumber":3,"parameterNumberName":"V-component_of_CURRENTS"},"data":[0,0,0,0,0,0,0,0,0,0,0,0,0,0,0,0,0,0,0,0,0,0,0,0,0,0,0,0,0,0,0,0,0,0,0,0,0,0,0,0,0,0,0,0,0,0,0,0,0,0,0,0,0,0,0,0,0,0,0.0151,0.0151,0,0.0118,0.0118,0.0117,0.01,0.01,0.01,0.01,0.0055,0.0053,0.0052,0,0,0,0,0,0,0,0,0,0,0,0,0,0.0163,0.0163,0.0151,0.0151,0.015,0.0118,0.0118,0.0117,0.01,0.01,0.01,0.01,0.0055,0.0054,0.0052,0,0,0,0,0,0,0,0,0,0,0,0,0,0.0146,0.0163,0.0151,0.0138,0.0136,0.0118,0.0118,0.0117,0.01,0.01,0.01,0.01,0.0055,0.0054,0.0052,0.0041,0,0,0.0047,0.0046,0,0,0,0,0,0,0,0,0.0147,0.0146,0.014,0.0139,0.0137,0.0113,0.0105,0.0091,0.01,0.0114,0.01,0.01,0.0073,0.007,0.0064,0.0039,0.0037,0.0046,0.0045,0.0044,0.0044,0,0,0,0,0,0,0,0.0149,0.0147,0.0138,0.014,0.0138,0.0121,0.0119,0.0102,0.0094,0.0112,0.0111,0.0108,0.0072,0.0065,0.0062,0.0037,0.0046,0.0045,0.0044,0.0043,0.0012,0.0012,0,0,0,0,0,0,0.0155,0.0148,0.0139,0.0137,0.0143,0.0121,0.0119,0.0121,0.0094,0.009,0.0108,0.0107,0.0069,0.0065,0.0061,0.0071,0.0045,0.0043,0.0042,0.0012,0.0012,0.0012,0,0,0,0,0,0,0.0156,0.0155,0.014,0.0142,0.0139,0.0121,0.0123,0.012,0.0117,0.0091,0.0086,0.0108,0.0068,0.0063,0.0053,0.0068,0.0042,0.004,0.0011,0.0012,0.0012,0.0074,0,0,0,0,0,0,0.0156,0.0155,0.0159,0.0142,0.0139,0.0138,0.0123,0.012,0.0115,0.0114,0.009,0.0085,0.0068,0.0055,0.0051,0.0065,0.0039,0.0011,0.0011,0.0012,0.0072,0.0077,0.0081,0,0,0,0,0,0.0157,0.0166,0.016,0.0158,0.0145,0.0139,0.0136,0.0123,0.0115,0.0119,0.0101,0.0086,0.0055,0.0054,0.0049,0.0063,0.0011,0.0011,0.0012,0.007,0.0076,0.0081,0,0,0,0,0,0,0.0172,0.0164,0.0157,0.0163,0.0155,0.0136,0.0137,0.0127,0.0115,0.0113,0.0088,0.0083,0.0078,0.0059,0.0059,0.0053,0.003,0.003,0.0077,0.0082,0.0086,0.0106,0.0038,0,0,0,0,0,0.0178,0.0182,0.017,0.0174,0.0172,0.0155,0.015,0.0141,0.0128,0.0123,0.0107,0.0088,0.0075,0.007,0.0053,0.0051,0.0022,0.0055,0.0059,0.0063,0.0075,0.0039,0.0041,0.0014,0.0014,0.0014,0,0,0.0183,0.018,0.0181,0.0177,0.0169,0.0176,0.0153,0.015,0.0158,0.0119,0.0125,0.0101,0.0077,0.0076,0.0072,0.0063,0.0055,0.0064,0.0068,0.0077,0.004,0.0042,0.0045,0.0014,0.0014,0.0014,0,0,0.0201,0.0196,0.0208,0.0206,0.0198,0.019,0.0192,0.0178,0.0177,0.0174,0.015,0.0139,0.0117,0.0108,0.0099,0.0117,0.0077,0.0107,0.0151,0.0116,0.0118,0.012,0.0085,0.0083,0.0113,0.0113,0.0113,0,0.0209,0.0224,0.021,0.0222,0.0229,0.0202,0.022,0.0213,0.0198,0.0202,0.0184,0.0159,0.0136,0.0142,0.0149,0.0129,0.0099,0.0135,0.0123,0.0124,0.0124,0.0088,0.0086,0.0116,0.0116,0.0115,0.0115,0,0.0235,0.025,0.0258,0.0269,0.0272,0.0282,0.0274,0.0277,0.0268,0.0258,0.0257,0.0224,0.0211,0.0201,0.0182,0.0181,0.0154,0.013,0.0113,0.0131,0.0092,0.0088,0.0121,0.0119,0.0118,0.0118,0,0,0.0249,0.0274,0.0278,0.03,0.0301,0.031,0.0327,0.0338,0.0355,0.0331,0.0349,0.0323,0.0298,0.0286,0.0256,0.0232,0.0206,0.0189,0.0186,0.0162,0.0125,0.009,0.0082,0.0176,0.0175,0.0175,0.0095,0,0.0278,0.0322,0.0323,0.0367,0.0392,0.0384,0.0408,0.0411,0.0402,0.0409,0.0377,0.0374,0.0332,0.0327,0.0295,0.0228,0.0198,0.023,0.0105,0.0102,0.0074,0.0077,0.0174,0.0092,0.0091,0.009,0.009,0,0.0306,0.0336,0.0387,0.0435,0.0446,0.0467,0.0502,0.0517,0.0514,0.0506,0.0489,0.0454,0.0425,0.038,0.0279,0.0298,0.0222,0.0165,0.016,0.0105,0.0059,0.0068,0.0081,0.0082,0.0083,0.0083,0.0084,0,0.0333,0.0383,0.0431,0.0444,0.0487,0.0516,0.054,0.055,0.0573,0.0565,0.0568,0.0519,0.0492,0.0399,0.0274,0.0275,0.0149,0.0132,0.003,0.0026,0.0055,0.0054,0.006,0.006,0.006,0.0061,0.0061,0,0.0364,0.0404,0.0452,0.0477,0.0543,0.0559,0.0619,0.0627,0.0646,0.0668,0.062,0.0609,0.0492,0.0403,0.0292,0.0143,0.0155,0.0041,0.0005,0.0082,0.0085,0.0051,0.0051,0.0058,0.0058,0.0059,0.0059,0,0.0383,0.0412,0.0472,0.0533,0.0557,0.0603,0.0671,0.0709,0.0717,0.074,0.0741,0.0673,0.055,0.0418,0.0257,0.0162,0.0028,-0.003,0.0063,0.0032,-0.0073,-0.0068,-0.0137,-0.0139,-0.014,-0.0142,-0.0143,0,0.04,0.0432,0.0508,0.0547,0.0578,0.065,0.07,0.0739,0.0768,0.0769,0.0773,0.0679,0.061,0.0363,0.0217,0.0004,-0.0031,-0.0094,-0.0077,-0.0064,-0.0092,-0.0086,-0.0079,-0.0145,-0.0146,-0.0146,-0.0146,0,0.0427,0.045,0.0496,0.0574,0.0635,0.0706,0.0772,0.0799,0.0833,0.0845,0.0791,0.0675,0.053,0.0348,0.0176,0.0024,-0.0045,-0.0111,-0.0108,-0.0093,-0.0075,-0.01,-0.0092,-0.0152,-0.0151,-0.0151,-0.015,0,0.0442,0.0472,0.0525,0.0592,0.0667,0.0727,0.0773,0.0804,0.0834,0.0831,0.0806,0.0665,0.059,0.0355,0.0197,0.0043,0.0008,-0.0031,-0.0033,-0.0029,0.0023,0.0062,-0.0,0,0,0,0,0,0.045,0.0475,0.0539,0.0605,0.0678,0.0719,0.08,0.0837,0.087,0.0835,0.0823,0.0687,0.0457,0.036,0.0198,0.0158,-0.0025,-0.0037,-0.0071,-0.0182,-0.0176,-0.0138,0,0,0,0,0,0,0.0452,0.0503,0.0529,0.0597,0.0641,0.072,0.0773,0.0804,0.0785,0.0795,0.0673,0.0635,0.0407,0.0537,0.0186,0.0141,0.0096,-0.0138,-0.0141,-0.0186,-0.018,-0.0175,-0.0134,0,0,0,0,0]}]]